Overview Statistics Trail Chart Weather Telemetry Raw packets
 

This is the latest recevied weather packets stored in our database for station/object VK5GR-12. If no packets are shown the sender has not sent any weather packets the latest 10 day(s).

<< 3 4 5 6 7 8 9 >>
Time Temp. Humidity Pressure Rain* Wind** Luminosity Snow
1788558887 13.33° C 81% 1011.4 hPa 0 mm - 29 W/m² -
1788557985 13.33° C 82% 1011 hPa 0 mm - 23 W/m² -
1788557085 13.33° C 81% 1011 hPa 0 mm - 17 W/m² -
1788556182 13.33° C 80% 1010.9 hPa 0 mm - 6 W/m² -
1788555278 13.89° C 77% 1010.9 hPa 0 mm - 1 W/m² -
1788554378 13.89° C 78% 1010.8 hPa 0 mm - 0 W/m² -
1788553478 13.89° C 79% 1010.6 hPa 0 mm - 0 W/m² -
1788552576 14.44° C 82% 1010.3 hPa 0 mm - 0 W/m² -
1788551673 14.44° C 80% 1010.1 hPa 0 mm - 0 W/m² -
1788550774 14.44° C 82% 1010 hPa 0 mm - 0 W/m² -
1788549871 14.44° C 85% 1009.9 hPa 0 mm - 0 W/m² -
1788548966 14.44° C 85% 1009.6 hPa 0 mm - 0 W/m² -
1788548064 14.44° C 84% 1009.3 hPa 0 mm - 0 W/m² -
1788547160 15° C 84% 1009.3 hPa 0 mm - 0 W/m² -
1788546258 14.44° C 85% 1009.3 hPa 0 mm - 0 W/m² -
1788545354 15° C 85% 1009.4 hPa 0 mm - 0 W/m² -
1788544454 15° C 85% 1009.2 hPa 0 mm - 0 W/m² -
1788543551 15° C 84% 1009.2 hPa 0 mm - 0 W/m² -
1788542648 15° C 83% 1008.9 hPa 0 mm - 0 W/m² -
1788541746 15.56° C 82% 1009.2 hPa 0 mm - 0 W/m² -
1788540841 15.56° C 82% 1009.1 hPa 0 mm - 0 W/m² -
1788539937 15.56° C 82% 1009.1 hPa 0 mm - 0 W/m² -
1788539037 15.56° C 81% 1009.4 hPa 0 mm - 0 W/m² -
1788538135 15.56° C 81% 1009.4 hPa 0 mm - 0 W/m² -
1788537232 15.56° C 81% 1009.3 hPa 0 mm - 0 W/m² -

* Rain latest hour (hover to see other rain measurements)
** Current wind speed in m/s (hover to see current wind gust speed)